16.12.2018Höhe
ü. NN
ZeitTemperatur (°C)Nieder-
schlag
Luft-
feuchte
Luft-
druck
Wind
StationaktuellMinimumMaximumaktuellMaximum
Aldingen654 m02:46-3,9-4,8 (20:27)-3,9 (14:11)0,0 l/m²84%1018,414,8 km/h (3 Bft) SO24,1 km/h (4 Bft) SO (21:58)
Allmendingen541 m02:45-4,4-7,2 (23:55)-4,4 (14:05)0,0 l/m²90%1017,70,0 km/h (0 Bft) S-SO17,7 km/h (3 Bft) SO (20:00)
Altshausen574 m02:45-5,7-6,7 (00:00)-5,6 (02:29)0,0 l/m²88%1014,40,0 km/h (0 Bft) S4,8 km/h (1 Bft) W-SW (00:51)
Amstetten-Reutti663 m02:45-5,0-5,4 (00:10)-4,8 (15:40)0,0 l/m²92%1017,425,7 km/h (4 Bft) O-SO33,8 km/h (5 Bft) O (20:40)
Amtzell-Grenis677 m02:45-5,8-7,4 (00:05)-5,6 (02:35)0,0 l/m²82%1019,76,4 km/h (2 Bft) S-SW11,3 km/h (2 Bft) O (00:30)
Aulendorf570 m02:45-5,2-5,4 (00:00)-5,2 (02:34)0,0 l/m²86%1017,80,0 km/h (0 Bft) NO8,0 km/h (2 Bft) NO (00:02)
Bad Krozingen233 m02:45-1,8-1,8 (20:40)-1,2 (13:25)0,0 l/m²93%1015,78,2 km/h (2 Bft) NO9,9 km/h (2 Bft) N (14:30)
Bad Saulgau595 m02:45-5,7-6,8 (22:55)-5,7 (14:10)0,0 l/m²90%1017,21,6 km/h (1 Bft) NW19,3 km/h (3 Bft) W (10:40)
Bad Saulgau-Lampertsweiler627 m02:45-5,8-6,3 (01:15)-5,8 (00:00)0,0 l/m²86%1020,31,6 km/h (1 Bft) S-SO4,8 km/h (1 Bft) W-NW (01:50)
Bad Schussenried572 m02:45-5,3-6,7 (00:00)-5,3 (02:45)0,0 l/m²93%1016,40,0 km/h (0 Bft) O0,0 km/h (0 Bft) O (00:00)
Biberach (Riss), Boehringer533 m02:40-4,7-6,1 (00:00)-4,6 (02:40)0,0 l/m²88%1016,41,8 km/h (1 Bft) W9,0 km/h (2 Bft) N (00:40)
Biberach (Riss), Realschule553 m02:45-5,0-5,3 (00:00)-5,0 (02:20)0,0 l/m²86%1018,96,4 km/h (2 Bft) SO16,1 km/h (3 Bft) O (00:25)
Bodnegg-Rotheidlen677 m02:45-5,4-6,9 (00:00)-5,4 (02:30)0,0 l/m²89%1018,40,0 km/h (0 Bft) SW11,3 km/h (2 Bft) SW (02:00)
Burgrieden523 m02:45-5,1-6,1 (00:05)-5,1 (02:30)0,0 l/m²84%1018,10,0 km/h (0 Bft) O-SO12,9 km/h (3 Bft) O (01:10)
Burgrieden-Hochstetten510 m02:45-4,6-6,4 (23:21)-4,6 (11:45)0,0 l/m²87%1018,33,2 km/h (1 Bft) O-SO20,9 km/h (4 Bft) O-SO (15:25)
Ebersbach579 m02:45-5,6-6,9 (00:00)-5,6 (02:40)0,0 l/m²93%1019,00,0 km/h (0 Bft) O-NO0,0 km/h (0 Bft) NO (00:00)
Ebersbach-Boos605 m02:45-6,0-6,8 (00:00)-6,0 (02:30)0,0 l/m²93%1018,70,0 km/h (0 Bft) W-SW0,0 km/h (0 Bft) O-SO (00:00)
Ebersbach-Menzenweiler661 m02:45-5,8-6,2 (00:05)-5,8 (01:10)0,0 l/m²93%1018,80,0 km/h (0 Bft) SO11,3 km/h (2 Bft) O-NO (00:05)
Erlenmoos645 m02:45-5,7-6,2 (00:05)-5,7 (02:10)0,0 l/m²92%1018,56,4 km/h (2 Bft) S16,1 km/h (3 Bft) O-SO (00:00)
Ertingen569 m02:45-5,2-6,1 (00:00)-5,2 (02:30)0,0 l/m²90%1017,91,6 km/h (1 Bft) NO4,8 km/h (1 Bft) NO (00:20)
Friedrichshafen405 m02:45-4,1-4,7 (22:40)-4,1 (14:45)0,0 l/m²84%1018,83,2 km/h (1 Bft) NO14,5 km/h (3 Bft) O-NO (08:45)
Günzburg443 m02:39-3,8-4,2 (00:50)-3,7 (00:00)0,0 l/m²83%1015,40,0 km/h (0 Bft) O-SO8,0 km/h (2 Bft) O-SO (01:35)
Höchsten802 m02:45-5,9-6,4 (00:00)-5,8 (02:00)0,0 l/m²89%1016,412,9 km/h (3 Bft) SW12,9 km/h (3 Bft) SW (02:45)
Horgenzell618 m02:45-3,3-3,3 (00:00)-3,3 (00:00)0,0 l/m²86%1011,312,9 km/h (3 Bft) O-NO12,9 km/h (3 Bft) O-NO (00:00)
Hoßkirch632 m02:45-6,1-8,0 (00:00)-6,1 (02:40)0,0 l/m²93%1017,40,0 km/h (0 Bft) W9,7 km/h (2 Bft) W (00:45)
Isny, Am Dreifingerbach695 m02:45-7,2-9,1 (00:00)-7,2 (02:45)0,0 l/m²90%1018,83,2 km/h (1 Bft) O-NO6,4 km/h (2 Bft) O-NO (00:45)
Isny, Weidachweg706 m02:45-6,8-9,0 (00:15)-6,3 (01:55)0,0 l/m²84%1020,33,2 km/h (1 Bft) SO6,4 km/h (2 Bft) SO (00:05)
Kappel-Grafenhausen163 m02:45-1,0-1,6 (20:10)-0,9 (13:55)0,0 l/m²88%1014,30,0 km/h (0 Bft) N12,9 km/h (3 Bft) W (15:00)
Kirchberg an der Iller584 m02:45-5,3-5,8 (23:50)-5,3 (15:10)0,0 l/m²86%1008,20,0 km/h (0 Bft) N13,8 km/h (3 Bft) W-NW (17:10)
Kißlegg-Staibshof709 m02:45-6,3-6,9 (00:15)-6,3 (02:30)0,0 l/m²91%1018,60,0 km/h (0 Bft) SW0,0 km/h (0 Bft) O-NO (00:00)
Kressbronn398 m02:46-4,2-5,4 (00:00)-4,2 (02:40)0,0 l/m²84%1017,70,0 km/h (0 Bft) O6,4 km/h (2 Bft) O (02:10)
Kreuzthal-Steinberg-Alpe930 m02:40-5,5-7,9 (00:10)-5,5 (02:40)0,0 l/m²100%1018,00,4 km/h (0 Bft) W-SW7,9 km/h (2 Bft) SO (01:50)
Kreuzthal-Steinberggipfel1040 m02:40-5,2-6,8 (00:10)-4,8 (01:20)-89%1018,06,8 km/h (2 Bft) SW11,2 km/h (2 Bft) W-SW (02:40)
Kristberg im Montafon (AT)1425 m02:45-1,7-3,9 (00:00)-1,7 (02:40)0,0 l/m²38%1018,53,2 km/h (1 Bft) N-NO9,7 km/h (2 Bft) NO (00:45)
Laupheim500 m02:45-4,8-6,0 (00:10)-4,8 (02:05)0,0 l/m²84%1017,40,0 km/h (0 Bft) S9,7 km/h (2 Bft) O-SO (00:55)
Leutkirch-Heggelbach670 m02:45-6,8-8,3 (00:00)-6,8 (02:35)0,0 l/m²91%1017,80,0 km/h (0 Bft) W-NW0,0 km/h (0 Bft) N-NO (00:00)
Lindau-Insel420 m02:45-3,1-4,7 (00:00)-3,1 (14:25)0,0 l/m²83%1017,96,4 km/h (2 Bft) O-NO14,5 km/h (3 Bft) NO (11:35)
Lindau-Stadt412 m02:45-4,3-5,2 (23:10)-4,3 (11:15)0,0 l/m²85%1018,31,6 km/h (1 Bft) O-NO11,3 km/h (2 Bft) NO (11:30)
Maierhöfen im Allgäu733 m02:50-6,3-10,7 (00:00)-6,3 (02:45)0,0 l/m²90%1019,51,6 km/h (1 Bft) SW4,8 km/h (1 Bft) S-SO (02:31)
Maselheim-Sulmingen548 m02:45-5,6-7,5 (00:00)-5,6 (12:25)0,0 l/m²89%1019,18,0 km/h (2 Bft) SO20,9 km/h (4 Bft) O (14:00)
Mietingen-Baltringen528 m02:45-5,2-6,6 (00:05)-5,2 (02:15)0,0 l/m²82%1019,78,0 km/h (2 Bft) S-SO11,3 km/h (2 Bft) O (00:45)
Mindelheim-Apfeltrach620 m02:46-7,2-7,9 (00:20)-7,2 (01:42)0,0 l/m²90%1019,03,2 km/h (1 Bft) SO9,7 km/h (2 Bft) SO (01:07)
Neresheim552 m00:00-5,0-5,0 (00:00)-5,0 (00:00)0,0 l/m²85%1016,65,0 km/h (1 Bft) S-SO5,0 km/h (1 Bft) S-SO (00:00)
Neukirch570 m02:45-5,4-6,1 (23:00)-5,4 (14:55)0,0 l/m²88%1018,78,0 km/h (2 Bft) O-NO20,9 km/h (4 Bft) O-NO (11:50)
Ochsenhausen, Birkenstraße613 m02:45-5,6-6,2 (23:00)-5,6 (15:20)0,0 l/m²83%1018,84,8 km/h (1 Bft) O-SO19,3 km/h (3 Bft) O-NO (14:15)
Ostrach619 m02:45-4,8-6,1 (22:35)-4,8 (14:10)0,0 l/m²91%1016,81,6 km/h (1 Bft) O-NO17,7 km/h (3 Bft) N-NO (14:45)
Ravensburg428 m02:45-3,8-4,9 (01:00)-3,8 (02:30)0,0 l/m²84%1017,53,2 km/h (1 Bft) N9,7 km/h (2 Bft) NO (00:00)
Reichenbach an der Fils343 m02:45-2,1-3,3 (00:00)-2,1 (02:30)0,0 l/m²77%1019,11,6 km/h (1 Bft) SO30,6 km/h (5 Bft) O-SO (00:45)
Reinstetten559 m02:45-5,6-6,4 (00:00)-5,6 (00:40)0,0 l/m²87%1018,68,0 km/h (2 Bft) S-SO11,3 km/h (2 Bft) O-SO (00:20)
Riedlingen530 m02:45-4,8-5,2 (00:05)-4,8 (00:50)0,0 l/m²88%1017,90,0 km/h (0 Bft) O0,0 km/h (0 Bft) O-NO (00:00)
Rißtissen489 m02:45-4,1-4,8 (00:00)-4,0 (02:45)0,0 l/m²89%1015,43,2 km/h (1 Bft) O-NO9,7 km/h (2 Bft) O (01:15)
Schemmerhofen520 m02:45-4,8-5,2 (00:00)-4,8 (02:45)0,0 l/m²90%1017,43,2 km/h (1 Bft) O-NO6,4 km/h (2 Bft) O-NO (00:20)
Silbertal im Montafon (AT)884 m02:45-3,8-7,2 (00:00)-3,8 (02:45)0,0 l/m²89%1020,31,6 km/h (1 Bft) W1,6 km/h (1 Bft) W (00:00)
Tettnang466 m02:45-4,3-5,4 (00:00)-4,3 (02:45)0,0 l/m²85%1017,11,6 km/h (1 Bft) O4,8 km/h (1 Bft) O-NO (02:00)
Tuttlingen662 m02:45-6,5-7,4 (00:00)-6,5 (02:40)0,0 l/m²87%1018,00,0 km/h (0 Bft) O-NO0,0 km/h (0 Bft) O-NO (00:00)
Ummendorf547 m02:45-5,1-5,5 (00:05)-5,0 (02:10)0,0 l/m²86%1019,03,2 km/h (1 Bft) S-SO14,5 km/h (3 Bft) SO (00:25)
Ummendorf-Fischbach558 m02:45-5,4-6,0 (00:00)-5,3 (02:35)0,0 l/m²86%1019,24,8 km/h (1 Bft) O-SO9,7 km/h (2 Bft) S-SW (00:00)
Waldburg707 m02:45-5,0-6,7 (00:00)-4,9 (02:05)0,0 l/m²89%1018,00,0 km/h (0 Bft) N12,9 km/h (3 Bft) N (00:10)
Waltenhofen im Allgäu720 m02:45-9,3-12,3 (00:10)-9,3 (02:35)0,0 l/m²91%1018,40,0 km/h (0 Bft) S4,8 km/h (1 Bft) S (01:45)
Weingarten500 m02:45-4,7-6,0 (00:00)-4,7 (02:40)0,0 l/m²86%1017,91,6 km/h (1 Bft) SO6,4 km/h (2 Bft) O (02:05)
Winterlingen785 m00:30-6,9-7,0 (00:15)-6,9 (00:30)0,0 l/m²93%1016,52,5 km/h (1 Bft) SW3,6 km/h (1 Bft) SO (00:10)

Werbung
niederschlagsdatenbank | info | login - erfassung

Sollten Sie Interesse haben, an der Niederschlagsdatenbank teilzunehmen, finden Sie > hier < weitere Informationen.

Niederschlagsdaten der Station Leutkirch - Nachtigallenweg 28

Karl-Heinz Schweigert

Niederschlagsstation aufgenommen ins Stationsnetz der Wetterwarte Süd am 01.05.2013
Monat: .
Anmerkung:0,0 = nicht messbarer Niederschlag
 -  = kein Niederschlag

Stationsdaten

Höhe

673 m

Lage

Auf Google Maps ansehen

Beschreibung

Der Regenmesser befindet sich im Vorgarten, gleich neben dem Kasten für die Tageszeitungen. Lage: 673 Meter über Meereshöhe, 010°02'02" Ost; 47°49'48" Nord. Mein Haus befindet sich östlich der Stadtmitte in der Repsweihersiedlung, die nach dem Krieg in den 50er bis 70er Jahren gebaut wurde. Um die Siedlung befinden sich Wiesen, Wälder und Weiher.
< November 2018

Dezember 2018

TagNiederschlagBemerkung
01.0,5
02.20,0
03.13,5
04.13,0
05.2,0
06.4,5
07.6,5
08.9,0
09.12,0
10.6,5
Schneeregen Schnee
11.-
Schneehöhe: 3cm
12.-
Schneehöhe: 2cm
13.-
Schneehöhe: 2cm
14.-
Schneehöhe: Reste
15.-
Schneehöhe: Reste
16.-
17.-
18.-
19.-
20.-
21.-
22.-
23.-
24.-
25.-
26.-
27.-
28.-
29.-
30.-
31.-
Gesamt:87,5 
Die Spalten "Tag" und "Niederschlag" lassen sich durch Klicken auf den Spaltenkopf sortieren.
Die Angaben sind in l/m².

< November 2018


Monats- und Jahresniederschlag


Wetterbeobachtungen Legende:

  • Regen
  • Nieselregen
  • Schneeregen
  • Schnee
  • Graupel
  • Eiskörner
  • Hagel
  • Bodennebel
  • Gewitter
  • Nebelnässe
  • Schneegriesel

Grafische Darstellung der Niederschläge der Station Leutkirch Dezember 2018

 
wetterstationen
wetterstationen
- derzeit 73 Stationen
niederschlagsdatenbank
wetterstationen
- kartographische Darstellung
niederschlagsdatenbank
niederschlagsstationen
- derzeit 102 Stationen
niederschlagsdatenbank
niederschlagsstationen
- kartographische Darstellung
 
  treffpunkt & service
--- Anzeigen --------------------------------
zugriffe:
insgesamt: 40.146.792
aktueller monat: 220.804
heute: 363
momentan online: 4
 
 
monatshöchstwert: 653.625
vorheriger monat: 361.432
gestern: 15.885
tageshöchstwert: 45.129
 
wetterwarte süd
 
konradstraße 3
info@wetterwarte-sued.com
roland roth
 
88427 bad schussenried